COSMOS 2251 DEB

Satellite information

Favourite Embed

Satellite Type and Status

DEBRISIN ORBIT

Key statistics

Satellite COSMOS 2251 DEB at a glance.

Uptime

11648

Days in orbit

Revolutions

≈ 14.0

Per day

Orbit

LEO

Low Earth Orbit

Inclination

74.1

Latest

Satellite identification and parameters

Extended collection of information and parameters for COSMOS 2251 DEB.

Object identification

Identified? True

Debris? True

Object name: COSMOS 2251 DEB

International designator: 1993-036BYD

Object number (NORAD): 47073

Object ID (CCSDS): 47073

Country: COMMONWEALTH OF INDEPENDENT STATES (CIS)

Current information (Y/N): Y

RCS size: SMALL

Orbital parameters

Period: 102.543 minutes

Inclination: 74.0819 deg

SMA: 7257.114 km

Apoapsis: 997.425 km

Periapsis: 760.532 km

RAAN: 234.4018 deg

Eccentricy: 0.0163214

Argument of periapsis: 327.268 deg

Mean anomaly: 31.8421 deg

Mean motion: 14.04290203 rev/day

Mean motion (dot): 0.0000094 rev/day2

B* drag term: 0.00053913 1/REarth

Two-line elements (TLE)

Creation date: May 2, 2025, 2:33 a.m.

Reference frame: TEME

Reference center: EARTH

Epoch: May 1, 2025, 12:18 a.m. UTC

TLE line 0: 0 COSMOS 2251 DEB

TLE line 1: 1 47073U 93036BYD 25121.01298427 .00000940 00000-0 53913-3 0 9993

TLE line 2: 2 47073 74.0819 234.4018 0163214 327.2680 31.8421 14.04290203571927

Live tracking on map

Real-time ground track for satellite COSMOS 2251 DEB.

In-orbit conjunctions

A list of the most updated potential collisions computed for object COSMOS 2251 DEB.

Target Orbit TCA Probability of collision Miss distance Type
METEOR 2-20 DEB LEO 2025-02-09 21:48:23 0.005258954 23.0 (m) DEBRIS

Associated space launch

Military communications satellite. Destroyed in a collision with Iridium 33.

COSMOS 2251 DEB was lifted into orbit during the mission ‘Kosmos-3M | Strela-2M 51’, on board a Kosmos-3M space rocket.

The launch took place on June 16, 1993, 4:17 a.m. from 132/1 (132L).

For more information about the launch, click the button.

Launch to space Kosmos-3M | Strela-2M 51
Kosmos-3M | Strela-2M 51

Agency: N/A

Status: Launch Successful

Launch date: June 16, 1993, 4:17 a.m. UTC

Rocket: Kosmos-3M

Launch pad: 132/1 (132L)

Location: Plesetsk Cosmodrome, Russian Federation

...

Latest news about this satellite

There are no fresh news available about this satellite. Check back as we update our databases every day.


Newsletter sign-up

Weekly statistics, charts and insights to help you stay on top of the space industry.